#timestamp,LO_Frequency,Hit,StdDev 
1579439695.8,286047003.5,P
1579439715.6,286047003.0,P
1579439735.5,286047006.4,P
1579439755.3,286047008.5,Y
1579439775.2,286047003.1,P
1579439795.9,286047001.3,N
1579439815.7,286047003.5,N
1579439835.6,286047003.8,Y
1579439855.4,286046999.3,P
1579439875.2,286046996.6,N
1579439895.1,286046996.9,N
1579439896.0,286046996.9,N
1579439915.8,286046999.5,N
1579439935.7,286046997.7,N
1579439955.5,286046997.1,N
1579439975.3,286046999.6,N
1579439995.2,286046999.2,N
1579440015.0,286046997.3,N
1579440015.9,286046997.3,N
1579440035.7,286046997.4,N
1579440055.6,286046999.5,N
1579440075.4,286046998.5,N
1579440095.3,286046999.0,N
1579440115.1,286046999.3,N
1579440116.0,286046999.3,N
1579440135.8,286046998.8,N
1579440155.7,286046998.6,N
1579440175.5,286047000.9,N
1579440195.3,286047000.5,N
1579440215.2,286047000.4,N
1579440235.0,286047000.8,N
1579440235.9,286047000.8,N
1579440255.8,286047000.6,N
1579440275.6,286047001.0,N
1579440295.4,286047000.0,N
1579440315.3,286047001.0,N
1579440335.1,286047001.6,N
1579440355.8,286047003.1,N
1579440375.7,286047003.4,N
1579440395.5,286047005.6,Y
1579440415.4,286047005.6,P
1579440435.2,286047003.2,N
1579440455.0,286047005.2,N
1579440455.9,286047005.2,N
1579440475.8,286047003.3,N
1579440495.6,286047003.6,N
1579440515.5,286047004.4,N
1579440535.3,286047001.7,N
1579440555.1,286047003.6,N
1579440575.9,286047003.1,N
1579440595.7,286047003.0,N
1579440615.5,286047004.8,N
1579440635.4,286047005.4,Y
1579440655.2,286047000.5,P
1579440675.1,286047000.0,N
1579440676.0,286047000.0,N
1579440695.8,286046998.1,N
1579440715.6,286047000.5,N
1579440735.5,286047000.4,N
1579440755.3,286047000.9,N
1579440775.1,286047000.7,N
1579440795.9,286047001.1,N
1579440815.7,286047001.1,N
1579440835.6,286046998.6,N
1579440855.4,286047000.6,N
1579440875.2,286046999.8,N
1579440895.1,286047000.3,N
1579440896.0,286047000.3,N
1579440915.8,286047002.1,N
1579440935.6,286047002.5,N
1579440955.5,286047002.8,N
1579440975.3,286047001.5,N
1579440995.2,286047003.7,N
1579441015.9,286047003.3,N
1579441035.7,286047004.1,N
1579441055.6,286047004.2,N
1579441075.4,286047001.4,N
1579441095.2,286047004.4,N
1579441115.1,286047006.0,Y
1579441116.0,286047006.0,P
1579441135.8,286047004.0,N
1579441155.7,286047001.8,N
1579441175.5,286047000.1,N
1579441195.3,286046999.8,N
1579441215.2,286047000.0,N
1579441235.0,286047000.6,N
1579441235.9,286047000.6,N
1579441255.8,286047001.0,N
1579441275.6,286047000.9,N
1579441295.4,286047002.0,N
1579441315.3,286047004.3,N
1579441335.1,286047003.2,N
1579441355.8,286047003.1,N
1579441375.7,286047003.0,N
1579441395.5,286047003.6,N
1579441415.4,286047002.0,N
1579441435.2,286047001.3,N
1579441455.0,286047001.9,N
1579441455.9,286047001.9,N
1579441475.8,286047001.9,N
1579441495.6,286047001.4,N
1579441515.4,286047003.5,N
1579441535.3,286047004.2,N
1579441555.1,286047003.8,N
1579441575.9,286047004.3,N
1579441595.7,286047004.1,N
1579441615.5,286047001.4,N
1579441635.4,286047003.3,N
1579441655.2,286047005.6,Y
1579441675.0,286047003.5,P
1579441675.9,286047003.5,P
1579441695.8,286047003.6,P
1579441715.6,286047003.5,Y
1579441735.5,286046998.2,P
1579441755.3,286047000.2,N
1579441775.1,286047000.5,N
1579441795.9,286046999.8,N
1579441815.7,286047000.3,N
1579441835.6,286047000.8,N
1579441855.4,286047001.0,N
1579441875.2,286046999.7,N
1579441895.1,286046999.9,N
1579441896.0,286046999.9,N
1579441915.8,286047002.2,N
1579441935.7,286047001.9,N
1579441955.5,286047001.7,N
1579441975.3,286047002.1,N
1579441995.2,286047004.3,Y
1579442015.0,286047002.2,P
1579442015.9,286047002.2,P
1579442035.8,286047004.2,P
1579442055.6,286047004.3,Y
1579442075.4,286047001.5,P
1579442095.3,286047002.0,P
1579442115.1,286047002.1,P
1579442135.9,286047002.0,Y
1579442155.7,286046998.2,P
1579442175.5,286047000.7,N
1579442195.4,286047000.5,N
1579442215.2,286047000.3,N
1579442235.0,286047000.5,N
1579442235.9,286047000.5,N
1579442255.8,286047000.0,N
1579442275.6,286046999.7,N
1579442295.5,286047002.2,N
1579442315.3,286047004.1,Y
1579442335.1,286047004.5,P
1579442355.9,286047005.4,N
1579442375.7,286047005.0,N
1579442395.6,286047007.6,Y
